Location: Newark
(33.6333°S, 78.8500°W)
Time: 11:16:34
(UTC+00:00)

Tiros 1 despin weight - Pass Details

Date: 23 October 2019
Orbit: 594 x 642 km, 48.2° (Epoch: 14 November)

Event Time Altitude Azimuth Distance (km) Brightness Sun altitude
Rises 00:36:01 0° 246° (WSW) 2,850 ? -13.0°
Reaches altitude 10° 00:38:43 10° 261° (W) 1,945 ? -13.5°
Maximum altitude 00:42:08 22° 311° (NW) 1,336 ? -14.2°
Drops below altitude 10° 00:45:34 10° 2° (N) 1,946 ? -14.8°
Enters shadow 00:46:22 - 8° (N) 2,197 ? -15.0°
